Year,Month,Day,Hour,Minute,Value (Times are PST for temperature in C)
2019,05,28,00,00,20.30
2019,05,28,00,01,20.20
2019,05,28,00,02,20.20
2019,05,28,00,03,20.20
2019,05,28,00,04,20.20
2019,05,28,00,05,20.20
2019,05,28,00,06,20.20
2019,05,28,00,07,20.20
2019,05,28,00,08,20.20
2019,05,28,00,09,20.20
2019,05,28,00,10,20.10
2019,05,28,00,11,20.10
2019,05,28,00,12,20.10
2019,05,28,00,13,20.10
2019,05,28,00,14,20.10
2019,05,28,00,15,20.00
2019,05,28,00,16,20.00
2019,05,28,00,17,20.00
2019,05,28,00,18,19.90
2019,05,28,00,19,19.90
2019,05,28,00,20,19.90
2019,05,28,00,21,19.90
2019,05,28,00,22,19.80
2019,05,28,00,23,19.80
2019,05,28,00,24,19.80
2019,05,28,00,25,19.80
2019,05,28,00,26,19.80
2019,05,28,00,27,19.80
2019,05,28,00,28,19.70
2019,05,28,00,29,19.70
2019,05,28,00,30,19.70
2019,05,28,00,31,19.70
2019,05,28,00,32,19.70
2019,05,28,00,33,19.60
2019,05,28,00,34,19.60
2019,05,28,00,35,19.60
2019,05,28,00,36,19.50
2019,05,28,00,37,19.50
2019,05,28,00,38,19.50
2019,05,28,00,39,19.40
2019,05,28,00,40,19.40
2019,05,28,00,41,19.40
2019,05,28,00,42,19.30
2019,05,28,00,43,19.30
2019,05,28,00,44,19.30
2019,05,28,00,45,19.20
2019,05,28,00,46,19.20
2019,05,28,00,47,19.20
2019,05,28,00,48,19.20
2019,05,28,00,49,19.20
2019,05,28,00,50,19.20
2019,05,28,00,51,19.20
2019,05,28,00,52,19.10
2019,05,28,00,53,19.10
2019,05,28,00,54,19.10
2019,05,28,00,55,19.10
2019,05,28,00,56,19.10
2019,05,28,00,57,19.10
2019,05,28,00,58,19.00
2019,05,28,00,59,19.00
2019,05,28,01,00,19.00
2019,05,28,01,01,19.00
2019,05,28,01,02,18.90
2019,05,28,01,03,18.90
2019,05,28,01,04,18.90
2019,05,28,01,05,18.90
2019,05,28,01,06,18.80
2019,05,28,01,07,18.80
2019,05,28,01,08,18.80
2019,05,28,01,09,18.70
2019,05,28,01,10,18.70
2019,05,28,01,11,18.70
2019,05,28,01,12,18.60
2019,05,28,01,13,18.60
2019,05,28,01,14,18.60
2019,05,28,01,15,18.60
2019,05,28,01,16,18.50
2019,05,28,01,17,18.50
2019,05,28,01,18,18.50
2019,05,28,01,19,18.40
2019,05,28,01,20,18.40
2019,05,28,01,21,18.40
2019,05,28,01,22,18.40
2019,05,28,01,23,18.40
2019,05,28,01,24,18.30
2019,05,28,01,25,18.30
2019,05,28,01,26,18.30
2019,05,28,01,27,18.30
2019,05,28,01,28,18.30
2019,05,28,01,29,18.30
2019,05,28,01,30,18.30
2019,05,28,01,31,18.20
2019,05,28,01,32,18.20
2019,05,28,01,33,18.10
2019,05,28,01,34,18.10
2019,05,28,01,35,18.10
2019,05,28,01,36,18.00
2019,05,28,01,37,17.90
2019,05,28,01,38,17.90
2019,05,28,01,39,17.90
2019,05,28,01,40,17.80
2019,05,28,01,41,17.80
2019,05,28,01,42,17.80
2019,05,28,01,43,17.80
2019,05,28,01,44,17.70
2019,05,28,01,45,17.70
2019,05,28,01,46,17.70
2019,05,28,01,47,17.60
2019,05,28,01,48,17.60
2019,05,28,01,49,17.60
2019,05,28,01,50,17.60
2019,05,28,01,51,17.50
2019,05,28,01,52,17.50
2019,05,28,01,53,17.50
2019,05,28,01,54,17.40
2019,05,28,01,55,17.40
2019,05,28,01,56,17.40
2019,05,28,01,57,17.30
2019,05,28,01,58,17.30
2019,05,28,01,59,17.30
2019,05,28,02,00,17.20
2019,05,28,02,01,17.20
2019,05,28,02,02,17.20
2019,05,28,02,03,17.20
2019,05,28,02,04,17.10
2019,05,28,02,05,17.10
2019,05,28,02,06,17.10
2019,05,28,02,07,17.00
2019,05,28,02,08,17.00
2019,05,28,02,09,17.00
2019,05,28,02,10,16.90
2019,05,28,02,11,16.90
2019,05,28,02,12,16.90
2019,05,28,02,13,16.90
2019,05,28,02,14,16.90
2019,05,28,02,15,16.90
2019,05,28,02,16,16.90
2019,05,28,02,17,16.90
2019,05,28,02,18,16.80
2019,05,28,02,19,16.80
2019,05,28,02,20,16.80
2019,05,28,02,21,16.80
2019,05,28,02,22,16.70
2019,05,28,02,23,16.70
2019,05,28,02,24,16.70
2019,05,28,02,25,16.70
2019,05,28,02,26,16.60
2019,05,28,02,27,16.60
2019,05,28,02,28,16.60
2019,05,28,02,29,16.50
2019,05,28,02,30,16.50
2019,05,28,02,31,16.50
2019,05,28,02,32,16.40
2019,05,28,02,33,16.40
2019,05,28,02,34,16.40
2019,05,28,02,35,16.40
2019,05,28,02,36,16.50
2019,05,28,02,37,16.50
2019,05,28,02,38,16.50
2019,05,28,02,39,16.60
2019,05,28,02,40,16.60
2019,05,28,02,41,16.60
2019,05,28,02,42,16.60
2019,05,28,02,43,16.60
2019,05,28,02,44,16.60
2019,05,28,02,45,16.60
2019,05,28,02,46,16.60
2019,05,28,02,47,16.60
2019,05,28,02,48,16.60
2019,05,28,02,49,16.60
2019,05,28,02,50,16.50
2019,05,28,02,51,16.50
2019,05,28,02,52,16.40
2019,05,28,02,53,16.40
2019,05,28,02,54,16.30
2019,05,28,02,55,16.30
2019,05,28,02,56,16.30
2019,05,28,02,57,16.30
2019,05,28,02,58,16.20
2019,05,28,02,59,16.20
2019,05,28,03,00,16.20
2019,05,28,03,01,16.20
2019,05,28,03,02,16.20
2019,05,28,03,03,16.20
2019,05,28,03,04,16.20
2019,05,28,03,05,16.20
2019,05,28,03,06,16.20
2019,05,28,03,07,16.20
2019,05,28,03,08,16.20
2019,05,28,03,09,16.20
2019,05,28,03,10,16.20
2019,05,28,03,11,16.10
2019,05,28,03,12,16.10
2019,05,28,03,13,16.10
2019,05,28,03,14,16.10
2019,05,28,03,15,16.10
2019,05,28,03,16,16.10
2019,05,28,03,17,16.10
2019,05,28,03,18,16.00
2019,05,28,03,19,16.00
2019,05,28,03,20,16.00
2019,05,28,03,21,16.00
2019,05,28,03,22,16.00
2019,05,28,03,23,16.00
2019,05,28,03,24,15.90
2019,05,28,03,25,15.90
2019,05,28,03,26,15.90
2019,05,28,03,27,15.90
2019,05,28,03,28,15.90
2019,05,28,03,29,15.90
2019,05,28,03,30,15.90
2019,05,28,03,31,15.80
2019,05,28,03,32,15.80
2019,05,28,03,33,15.80
2019,05,28,03,34,15.80
2019,05,28,03,35,15.80
2019,05,28,03,36,15.80
2019,05,28,03,37,15.80
2019,05,28,03,38,15.80
2019,05,28,03,39,15.80
2019,05,28,03,40,15.80
2019,05,28,03,41,15.80
2019,05,28,03,42,15.80
2019,05,28,03,43,15.80
2019,05,28,03,44,15.80
2019,05,28,03,45,15.80
2019,05,28,03,46,15.80
2019,05,28,03,47,15.80
2019,05,28,03,48,15.80
2019,05,28,03,49,15.80
2019,05,28,03,50,15.80
2019,05,28,03,51,15.80
2019,05,28,03,52,15.80
2019,05,28,03,53,15.70
2019,05,28,03,54,15.70
2019,05,28,03,55,15.70
2019,05,28,03,56,15.70
2019,05,28,03,57,15.60
2019,05,28,03,58,15.60
2019,05,28,03,59,15.60
2019,05,28,04,00,15.60
2019,05,28,04,01,15.50
2019,05,28,04,02,15.50
2019,05,28,04,03,15.50
2019,05,28,04,04,15.50
2019,05,28,04,05,15.40
2019,05,28,04,06,15.40
2019,05,28,04,07,15.40
2019,05,28,04,08,15.40
2019,05,28,04,09,15.40
2019,05,28,04,10,15.40
2019,05,28,04,11,15.40
2019,05,28,04,12,15.40
2019,05,28,04,13,15.40
2019,05,28,04,14,15.40
2019,05,28,04,15,15.40
2019,05,28,04,16,15.40
2019,05,28,04,17,15.40
2019,05,28,04,18,15.40
2019,05,28,04,19,15.40
2019,05,28,04,20,15.40
2019,05,28,04,21,15.30
2019,05,28,04,22,15.30
2019,05,28,04,23,15.30
2019,05,28,04,24,15.30
2019,05,28,04,25,15.30
2019,05,28,04,26,15.20
2019,05,28,04,27,15.20
2019,05,28,04,28,15.10
2019,05,28,04,29,15.00
2019,05,28,04,30,15.00
2019,05,28,04,31,14.90
2019,05,28,04,32,14.80
2019,05,28,04,33,14.80
2019,05,28,04,34,14.70
2019,05,28,04,35,14.70
2019,05,28,04,36,14.70
2019,05,28,04,37,14.70
2019,05,28,04,38,14.60
2019,05,28,04,39,14.60
2019,05,28,04,40,14.60
2019,05,28,04,41,14.60
2019,05,28,04,42,14.60
2019,05,28,04,43,14.60
2019,05,28,04,44,14.60
2019,05,28,04,45,14.60
2019,05,28,04,46,14.70
2019,05,28,04,47,14.60
2019,05,28,04,48,14.60
2019,05,28,04,49,14.60
2019,05,28,04,50,14.60
2019,05,28,04,51,14.60
2019,05,28,04,52,14.60
2019,05,28,04,53,14.60
2019,05,28,04,54,14.60
2019,05,28,04,55,14.50
2019,05,28,04,56,14.50
2019,05,28,04,57,14.50
2019,05,28,04,58,14.50
2019,05,28,04,59,14.50
2019,05,28,05,00,14.50
2019,05,28,05,01,14.50
2019,05,28,05,02,14.50
2019,05,28,05,03,14.60
2019,05,28,05,04,14.60
2019,05,28,05,05,14.60
2019,05,28,05,06,14.60
2019,05,28,05,07,14.60
2019,05,28,05,08,14.50
2019,05,28,05,09,14.50
2019,05,28,05,10,14.50
2019,05,28,05,11,14.50
2019,05,28,05,12,14.60
2019,05,28,05,13,14.60
2019,05,28,05,14,14.70
2019,05,28,05,15,14.70
2019,05,28,05,16,14.70
2019,05,28,05,17,14.80
2019,05,28,05,18,14.80
2019,05,28,05,19,14.80
2019,05,28,05,20,14.80
2019,05,28,05,21,14.80
2019,05,28,05,22,14.70
2019,05,28,05,23,14.70
2019,05,28,05,24,14.70
2019,05,28,05,25,14.70
2019,05,28,05,26,14.70
2019,05,28,05,27,14.70
2019,05,28,05,28,14.60
2019,05,28,05,29,14.60
2019,05,28,05,30,14.60
2019,05,28,05,31,14.50
2019,05,28,05,32,14.50
2019,05,28,05,33,14.40
2019,05,28,05,34,14.40
2019,05,28,05,35,14.30
2019,05,28,05,36,14.30
2019,05,28,05,37,14.30
2019,05,28,05,38,14.20
2019,05,28,05,39,14.20
2019,05,28,05,40,14.20
2019,05,28,05,41,14.10
2019,05,28,05,42,14.10
2019,05,28,05,43,14.10
2019,05,28,05,44,14.10
2019,05,28,05,45,14.10
2019,05,28,05,46,14.00
2019,05,28,05,47,14.00
2019,05,28,05,48,14.00
2019,05,28,05,49,14.00
2019,05,28,05,50,14.00
2019,05,28,05,51,14.00
2019,05,28,05,52,14.00
2019,05,28,05,53,14.10
2019,05,28,05,54,14.10
2019,05,28,05,55,14.10
2019,05,28,05,56,14.20
2019,05,28,05,57,14.20
2019,05,28,05,58,14.20
2019,05,28,05,59,14.20
2019,05,28,06,00,14.20
2019,05,28,06,01,14.10
2019,05,28,06,02,14.10
2019,05,28,06,03,14.10
2019,05,28,06,04,14.10
2019,05,28,06,05,14.10
2019,05,28,06,06,14.10
2019,05,28,06,07,14.10
2019,05,28,06,08,14.10
2019,05,28,06,09,14.10
2019,05,28,06,10,14.10
2019,05,28,06,11,14.10
2019,05,28,06,12,14.10
2019,05,28,06,13,14.20
2019,05,28,06,14,14.20
2019,05,28,06,15,14.20
2019,05,28,06,16,14.20
2019,05,28,06,17,14.20
2019,05,28,06,18,14.20
2019,05,28,06,19,14.30
2019,05,28,06,20,14.30
2019,05,28,06,21,14.30
2019,05,28,06,22,14.40
2019,05,28,06,23,14.40
2019,05,28,06,24,14.40
2019,05,28,06,25,14.50
2019,05,28,06,26,14.50
2019,05,28,06,27,14.60
2019,05,28,06,28,14.60
2019,05,28,06,29,14.70
2019,05,28,06,30,14.80
2019,05,28,06,31,14.80
2019,05,28,06,32,14.90
2019,05,28,06,33,15.00
2019,05,28,06,34,15.00
2019,05,28,06,35,15.10
2019,05,28,06,36,15.20
2019,05,28,06,37,15.30
2019,05,28,06,38,15.30
2019,05,28,06,39,15.40
2019,05,28,06,40,15.50
2019,05,28,06,41,15.60
2019,05,28,06,42,15.70
2019,05,28,06,43,15.80
2019,05,28,06,44,15.80
2019,05,28,06,45,15.90
2019,05,28,06,46,15.90
2019,05,28,06,47,15.90
2019,05,28,06,48,16.00
2019,05,28,06,49,16.00
2019,05,28,06,50,16.00
2019,05,28,06,51,16.10
2019,05,28,06,52,16.20
2019,05,28,06,53,16.20
2019,05,28,06,54,16.30
2019,05,28,06,55,16.40
2019,05,28,06,56,16.40
2019,05,28,06,57,16.50
2019,05,28,06,58,16.60
2019,05,28,06,59,16.60
2019,05,28,07,00,16.70
2019,05,28,07,01,16.80
2019,05,28,07,02,16.90
2019,05,28,07,03,17.00
2019,05,28,07,04,17.10
2019,05,28,07,05,17.10
2019,05,28,07,06,17.20
2019,05,28,07,07,17.10
2019,05,28,07,08,17.10
2019,05,28,07,09,17.10
2019,05,28,07,10,17.10
2019,05,28,07,11,17.10
2019,05,28,07,12,17.10
2019,05,28,07,13,17.10
2019,05,28,07,14,17.10
2019,05,28,07,15,17.10
2019,05,28,07,16,17.10
2019,05,28,07,17,17.10
2019,05,28,07,18,17.10
2019,05,28,07,19,17.20
2019,05,28,07,20,17.20
2019,05,28,07,21,17.20
2019,05,28,07,22,17.20
2019,05,28,07,23,17.20
2019,05,28,07,24,17.20
2019,05,28,07,25,17.20
2019,05,28,07,26,17.20
2019,05,28,07,27,17.20
2019,05,28,07,28,17.30
2019,05,28,07,29,17.30
2019,05,28,07,30,17.30
2019,05,28,07,31,17.20
2019,05,28,07,32,17.20
2019,05,28,07,33,17.20
2019,05,28,07,34,17.20
2019,05,28,07,35,17.20
2019,05,28,07,36,17.20
2019,05,28,07,37,17.20
2019,05,28,07,38,17.20
2019,05,28,07,39,17.30
2019,05,28,07,40,17.30
2019,05,28,07,41,17.40
2019,05,28,07,42,17.50
2019,05,28,07,43,17.50
2019,05,28,07,44,17.60
2019,05,28,07,45,17.60
2019,05,28,07,46,17.70
2019,05,28,07,47,17.70
2019,05,28,07,48,17.70
2019,05,28,07,49,17.80
2019,05,28,07,50,17.80
2019,05,28,07,51,17.80
2019,05,28,07,52,17.80
2019,05,28,07,53,17.80
2019,05,28,07,54,17.80
2019,05,28,07,55,17.80
2019,05,28,07,56,17.80
2019,05,28,07,57,17.80
2019,05,28,07,58,17.80
2019,05,28,07,59,17.80
2019,05,28,08,00,17.80
2019,05,28,08,01,17.80
2019,05,28,08,02,17.80
2019,05,28,08,03,17.90
2019,05,28,08,04,17.90
2019,05,28,08,05,17.90
2019,05,28,08,06,18.00
2019,05,28,08,07,18.00
2019,05,28,08,08,18.10
2019,05,28,08,09,18.20
2019,05,28,08,10,18.20
2019,05,28,08,11,18.20
2019,05,28,08,12,18.10
2019,05,28,08,13,18.00
2019,05,28,08,14,18.00
2019,05,28,08,15,17.90
2019,05,28,08,16,17.80
2019,05,28,08,17,17.70
2019,05,28,08,18,17.60
2019,05,28,08,19,17.60
2019,05,28,08,20,17.50
2019,05,28,08,21,17.40
2019,05,28,08,22,17.40
2019,05,28,08,23,17.30
2019,05,28,08,24,17.30
2019,05,28,08,25,17.30
2019,05,28,08,26,17.20
2019,05,28,08,27,17.20
2019,05,28,08,28,17.20
2019,05,28,08,29,17.10
2019,05,28,08,30,17.10
2019,05,28,08,31,17.10
2019,05,28,08,32,17.10
2019,05,28,08,33,17.10
2019,05,28,08,34,17.20
2019,05,28,08,35,17.20
2019,05,28,08,36,17.20
2019,05,28,08,37,17.30
2019,05,28,08,38,17.30
2019,05,28,08,39,17.40
2019,05,28,08,40,17.40
2019,05,28,08,41,17.40
2019,05,28,08,42,17.50
2019,05,28,08,43,17.50
2019,05,28,08,44,17.60
2019,05,28,08,45,17.60
2019,05,28,08,46,17.70
2019,05,28,08,47,17.70
2019,05,28,08,48,17.80
2019,05,28,08,49,17.80
2019,05,28,08,50,17.90
2019,05,28,08,51,18.00
2019,05,28,08,52,18.20
2019,05,28,08,53,18.20
2019,05,28,08,54,18.20
2019,05,28,08,55,18.20
2019,05,28,08,56,18.20
2019,05,28,08,57,18.30
2019,05,28,08,58,18.40
2019,05,28,08,59,18.50
2019,05,28,09,00,18.60
2019,05,28,09,01,18.80
2019,05,28,09,02,18.90
2019,05,28,09,03,19.00
2019,05,28,09,04,19.20
2019,05,28,09,05,19.30
2019,05,28,09,06,19.40
2019,05,28,09,07,19.50
2019,05,28,09,08,19.50
2019,05,28,09,09,19.60
2019,05,28,09,10,19.60
2019,05,28,09,11,19.70
2019,05,28,09,12,19.70
2019,05,28,09,13,19.60
2019,05,28,09,14,19.60
2019,05,28,09,15,19.60
2019,05,28,09,16,19.60
2019,05,28,09,17,19.70
2019,05,28,09,18,19.70
2019,05,28,09,19,19.70
2019,05,28,09,20,19.70
2019,05,28,09,21,19.70
2019,05,28,09,22,19.60
2019,05,28,09,23,19.60
2019,05,28,09,24,19.50
2019,05,28,09,25,19.40
2019,05,28,09,26,19.30
2019,05,28,09,27,19.20
2019,05,28,09,28,19.00
2019,05,28,09,29,19.00
2019,05,28,09,30,18.90
2019,05,28,09,31,18.80
2019,05,28,09,32,18.80
2019,05,28,09,33,18.80
2019,05,28,09,34,18.70
2019,05,28,09,35,18.60
2019,05,28,09,36,18.50
2019,05,28,09,37,18.40
2019,05,28,09,38,18.30
2019,05,28,09,39,18.20
2019,05,28,09,40,18.10
2019,05,28,09,41,18.00
2019,05,28,09,42,17.90
2019,05,28,09,43,17.80
2019,05,28,09,44,17.80
2019,05,28,09,45,17.70
2019,05,28,09,46,17.70
2019,05,28,09,47,17.70
2019,05,28,09,48,17.70
2019,05,28,09,49,17.60
2019,05,28,09,50,17.50
2019,05,28,09,51,17.50
2019,05,28,09,52,17.50
2019,05,28,09,53,17.40
2019,05,28,09,54,17.30
2019,05,28,09,55,17.30
2019,05,28,09,56,17.30
2019,05,28,09,57,17.20
2019,05,28,09,58,17.20
2019,05,28,09,59,17.10
2019,05,28,10,00,17.10
2019,05,28,10,01,17.10
2019,05,28,10,02,17.00
2019,05,28,10,03,17.00
2019,05,28,10,04,16.90
2019,05,28,10,05,16.90
2019,05,28,10,06,17.00
2019,05,28,10,07,17.00
2019,05,28,10,08,17.10
2019,05,28,10,09,17.10
2019,05,28,10,10,17.10
2019,05,28,10,11,17.10
2019,05,28,10,12,17.10
2019,05,28,10,13,17.10
2019,05,28,10,14,17.10
2019,05,28,10,15,17.10
2019,05,28,10,16,17.10
2019,05,28,10,17,17.20
2019,05,28,10,18,17.20
2019,05,28,10,19,17.20
2019,05,28,10,20,17.20
2019,05,28,10,21,17.20
2019,05,28,10,22,17.10
2019,05,28,10,23,17.10
2019,05,28,10,24,17.10
2019,05,28,10,25,17.00
2019,05,28,10,26,17.10
2019,05,28,10,27,17.00
2019,05,28,10,28,17.00
2019,05,28,10,29,17.00
2019,05,28,10,30,16.90
2019,05,28,10,31,16.90
2019,05,28,10,32,16.90
2019,05,28,10,33,16.90
2019,05,28,10,34,16.90
2019,05,28,10,35,16.90
2019,05,28,10,36,17.00
2019,05,28,10,37,17.10
2019,05,28,10,38,17.20
2019,05,28,10,39,17.20
2019,05,28,10,40,17.20
2019,05,28,10,41,17.20
2019,05,28,10,42,17.30
2019,05,28,10,43,17.30
2019,05,28,10,44,17.40
2019,05,28,10,45,17.50
2019,05,28,10,46,17.60
2019,05,28,10,47,17.70
2019,05,28,10,48,17.80
2019,05,28,10,49,17.90
2019,05,28,10,50,18.00
2019,05,28,10,51,18.00
2019,05,28,10,52,18.00
2019,05,28,10,53,17.90
2019,05,28,10,54,17.90
2019,05,28,10,55,17.90
2019,05,28,10,56,17.80
2019,05,28,10,57,17.80
2019,05,28,10,58,17.80
2019,05,28,10,59,17.80
2019,05,28,11,00,17.80
2019,05,28,11,01,17.80
2019,05,28,11,02,17.70
2019,05,28,11,03,17.70
2019,05,28,11,04,17.70
2019,05,28,11,05,17.70
2019,05,28,11,06,17.70
2019,05,28,11,07,17.70
2019,05,28,11,08,17.70
2019,05,28,11,09,17.70
2019,05,28,11,10,17.60
2019,05,28,11,11,17.60
2019,05,28,11,12,17.60
2019,05,28,11,13,17.60
2019,05,28,11,14,17.60
2019,05,28,11,15,17.60
2019,05,28,11,16,17.60
2019,05,28,11,17,17.60
2019,05,28,11,18,17.60
2019,05,28,11,19,17.60
2019,05,28,11,20,17.60
2019,05,28,11,21,17.60
2019,05,28,11,22,17.60
2019,05,28,11,23,17.60
2019,05,28,11,24,17.60
2019,05,28,11,25,17.60
2019,05,28,11,26,17.60
2019,05,28,11,27,17.60
2019,05,28,11,28,17.60
2019,05,28,11,29,17.60
2019,05,28,11,30,17.70
2019,05,28,11,31,17.70
2019,05,28,11,32,17.70
2019,05,28,11,33,17.70
2019,05,28,11,34,17.70
2019,05,28,11,35,17.70
2019,05,28,11,36,17.70
2019,05,28,11,37,17.80
2019,05,28,11,38,17.80
2019,05,28,11,39,17.80
2019,05,28,11,40,17.80
2019,05,28,11,41,17.80
2019,05,28,11,42,17.70
2019,05,28,11,43,17.70
2019,05,28,11,44,17.70
2019,05,28,11,45,17.80
2019,05,28,11,46,17.80
2019,05,28,11,47,17.80
2019,05,28,11,48,17.80
2019,05,28,11,49,17.80
2019,05,28,11,50,17.80
2019,05,28,11,51,17.70
2019,05,28,11,52,17.70
2019,05,28,11,53,17.70
2019,05,28,11,54,17.70
2019,05,28,11,55,17.80
2019,05,28,11,56,17.80
2019,05,28,11,57,17.80
2019,05,28,11,58,17.90
2019,05,28,11,59,18.00
2019,05,28,12,00,18.10
2019,05,28,12,01,18.10
2019,05,28,12,02,18.20
2019,05,28,12,03,18.20
2019,05,28,12,04,18.20
2019,05,28,12,05,18.20
2019,05,28,12,06,18.20
2019,05,28,12,07,18.20
2019,05,28,12,08,18.20
2019,05,28,12,09,18.20
2019,05,28,12,10,18.20
2019,05,28,12,11,18.20
2019,05,28,12,12,18.20
2019,05,28,12,13,18.20
2019,05,28,12,14,18.20
2019,05,28,12,15,18.30
2019,05,28,12,16,18.30
2019,05,28,12,17,18.30
2019,05,28,12,18,18.40
2019,05,28,12,19,18.40
2019,05,28,12,20,18.40
2019,05,28,12,21,18.30
2019,05,28,12,22,18.30
2019,05,28,12,23,18.20
2019,05,28,12,24,18.20
2019,05,28,12,25,18.20
2019,05,28,12,26,18.20
2019,05,28,12,27,18.20
2019,05,28,12,28,18.10
2019,05,28,12,29,18.10
2019,05,28,12,30,18.00
2019,05,28,12,31,18.00
2019,05,28,12,32,18.00
2019,05,28,12,33,17.90
2019,05,28,12,34,18.00
2019,05,28,12,35,18.00
2019,05,28,12,36,18.00
2019,05,28,12,37,18.00
2019,05,28,12,38,17.90
2019,05,28,12,39,17.90
2019,05,28,12,40,18.00
2019,05,28,12,41,18.00
2019,05,28,12,42,18.10
2019,05,28,12,43,18.10
2019,05,28,12,44,18.10
2019,05,28,12,45,18.10
2019,05,28,12,46,18.00
2019,05,28,12,47,18.00
2019,05,28,12,48,18.00
2019,05,28,12,49,18.00
2019,05,28,12,50,18.10
2019,05,28,12,51,18.10
2019,05,28,12,52,18.10
2019,05,28,12,53,18.10
2019,05,28,12,54,18.00
2019,05,28,12,55,18.10
2019,05,28,12,56,18.10
2019,05,28,12,57,18.10
2019,05,28,12,58,18.20
2019,05,28,12,59,18.30
2019,05,28,13,00,18.30
2019,05,28,13,01,18.30
2019,05,28,13,02,18.30
2019,05,28,13,03,18.40
2019,05,28,13,04,18.40
2019,05,28,13,05,18.40
2019,05,28,13,06,18.40
2019,05,28,13,07,18.50
2019,05,28,13,08,18.40
2019,05,28,13,09,18.40
2019,05,28,13,10,18.40
2019,05,28,13,11,18.30
2019,05,28,13,12,18.30
2019,05,28,13,13,18.20
2019,05,28,13,14,18.20
2019,05,28,13,15,18.20
2019,05,28,13,16,18.20
2019,05,28,13,17,18.20
2019,05,28,13,18,18.20
2019,05,28,13,19,18.20
2019,05,28,13,20,18.20
2019,05,28,13,21,18.20
2019,05,28,13,22,18.20
2019,05,28,13,23,18.20
2019,05,28,13,24,18.10
2019,05,28,13,25,18.10
2019,05,28,13,26,18.10
2019,05,28,13,27,18.00
2019,05,28,13,28,18.00
2019,05,28,13,29,18.10
2019,05,28,13,30,18.10
2019,05,28,13,31,18.10
2019,05,28,13,32,18.10
2019,05,28,13,33,18.10
2019,05,28,13,34,18.10
2019,05,28,13,35,18.10
2019,05,28,13,36,18.20
2019,05,28,13,37,18.30
2019,05,28,13,38,18.30
2019,05,28,13,39,18.30
2019,05,28,13,40,18.30
2019,05,28,13,41,18.30
2019,05,28,13,42,18.30
2019,05,28,13,43,18.30
2019,05,28,13,44,18.30
2019,05,28,13,45,18.30
2019,05,28,13,46,18.30
2019,05,28,13,47,18.30
2019,05,28,13,48,18.40
2019,05,28,13,49,18.50
2019,05,28,13,50,18.60
2019,05,28,13,51,18.60
2019,05,28,13,52,18.60
2019,05,28,13,53,18.60
2019,05,28,13,54,18.60
2019,05,28,13,55,18.60
2019,05,28,13,56,18.60
2019,05,28,13,57,18.60
2019,05,28,13,58,18.60
2019,05,28,13,59,18.60
2019,05,28,14,00,18.60
2019,05,28,14,01,18.60
2019,05,28,14,02,18.60
2019,05,28,14,03,18.60
2019,05,28,14,04,18.60
2019,05,28,14,05,18.60
2019,05,28,14,06,18.60
2019,05,28,14,07,18.60
2019,05,28,14,08,18.60
2019,05,28,14,09,18.60
2019,05,28,14,10,18.60
2019,05,28,14,11,18.60
2019,05,28,14,12,18.70
2019,05,28,14,13,18.70
2019,05,28,14,14,18.70
2019,05,28,14,15,18.70
2019,05,28,14,16,18.80
2019,05,28,14,17,18.80
2019,05,28,14,18,18.80
2019,05,28,14,19,18.80
2019,05,28,14,20,18.80
2019,05,28,14,21,18.80
2019,05,28,14,22,18.80
2019,05,28,14,23,18.80
2019,05,28,14,24,18.80
2019,05,28,14,25,18.80
2019,05,28,14,26,18.80
2019,05,28,14,27,18.70
2019,05,28,14,28,18.70
2019,05,28,14,29,18.70
2019,05,28,14,30,18.80
2019,05,28,14,31,18.80
2019,05,28,14,32,18.90
2019,05,28,14,33,18.90
2019,05,28,14,34,18.90
2019,05,28,14,35,19.00
2019,05,28,14,36,19.00
2019,05,28,14,37,19.00
2019,05,28,14,38,19.00
2019,05,28,14,39,19.10
2019,05,28,14,40,19.10
2019,05,28,14,41,19.10
2019,05,28,14,42,19.20
2019,05,28,14,43,19.20
2019,05,28,14,44,19.30
2019,05,28,14,45,19.30
2019,05,28,14,46,19.30
2019,05,28,14,47,19.20
2019,05,28,14,48,19.20
2019,05,28,14,49,19.20
2019,05,28,14,50,19.30
2019,05,28,14,51,19.30
2019,05,28,14,52,19.30
2019,05,28,14,53,19.30
2019,05,28,14,54,19.30
2019,05,28,14,55,19.20
2019,05,28,14,56,19.20
2019,05,28,14,57,19.20
2019,05,28,14,58,19.30
2019,05,28,14,59,19.30
2019,05,28,15,00,19.30
2019,05,28,15,01,19.30
2019,05,28,15,02,19.30
2019,05,28,15,03,19.20
2019,05,28,15,04,19.20
2019,05,28,15,05,19.20
2019,05,28,15,06,19.20
2019,05,28,15,07,19.20
2019,05,28,15,08,19.20
2019,05,28,15,09,19.20
2019,05,28,15,10,19.20
2019,05,28,15,11,19.30
2019,05,28,15,12,19.40
2019,05,28,15,13,19.40
2019,05,28,15,14,19.40
2019,05,28,15,15,19.30
2019,05,28,15,16,19.30
2019,05,28,15,17,19.20
2019,05,28,15,18,19.20
2019,05,28,15,19,19.20
2019,05,28,15,20,19.20
2019,05,28,15,21,19.20
2019,05,28,15,22,19.20
2019,05,28,15,23,19.20
2019,05,28,15,24,19.20
2019,05,28,15,25,19.20
2019,05,28,15,26,19.30
2019,05,28,15,27,19.30
2019,05,28,15,28,19.40
2019,05,28,15,29,19.40
2019,05,28,15,30,19.40
2019,05,28,15,31,19.40
2019,05,28,15,32,19.50
2019,05,28,15,33,19.50
2019,05,28,15,34,19.60
2019,05,28,15,35,19.60
2019,05,28,15,36,19.60
2019,05,28,15,37,19.60
2019,05,28,15,38,19.60
2019,05,28,15,39,19.60
2019,05,28,15,40,19.60
2019,05,28,15,41,19.60
2019,05,28,15,42,19.60
2019,05,28,15,43,19.60
2019,05,28,15,44,19.60
2019,05,28,15,45,19.60
2019,05,28,15,46,19.60
2019,05,28,15,47,19.70
2019,05,28,15,48,19.70
2019,05,28,15,49,19.80
2019,05,28,15,50,19.80
2019,05,28,15,51,19.80
2019,05,28,15,52,19.80
2019,05,28,15,53,19.80
2019,05,28,15,54,19.90
2019,05,28,15,55,19.80
2019,05,28,15,56,19.90
2019,05,28,15,57,19.90
2019,05,28,15,58,20.00
2019,05,28,15,59,20.00
2019,05,28,16,00,20.00
2019,05,28,16,01,20.00
2019,05,28,16,02,20.00
2019,05,28,16,03,20.00
2019,05,28,16,04,20.00
2019,05,28,16,05,20.00
2019,05,28,16,06,20.00
2019,05,28,16,07,20.10
2019,05,28,16,08,20.10
2019,05,28,16,09,20.10
2019,05,28,16,10,20.00
2019,05,28,16,11,20.00
2019,05,28,16,12,20.00
2019,05,28,16,13,19.90
2019,05,28,16,14,19.80
2019,05,28,16,15,19.80
2019,05,28,16,16,19.80
2019,05,28,16,17,19.80
2019,05,28,16,18,19.80
2019,05,28,16,19,19.80
2019,05,28,16,20,19.80
2019,05,28,16,21,19.80
2019,05,28,16,22,19.70
2019,05,28,16,23,19.70
2019,05,28,16,24,19.70
2019,05,28,16,25,19.70
2019,05,28,16,26,19.70
2019,05,28,16,27,19.70
2019,05,28,16,28,19.70
2019,05,28,16,29,19.70
2019,05,28,16,30,19.70
2019,05,28,16,31,19.70
2019,05,28,16,32,19.70
2019,05,28,16,33,19.80
2019,05,28,16,34,19.80
2019,05,28,16,35,19.80
2019,05,28,16,36,19.80
2019,05,28,16,37,19.80
2019,05,28,16,38,19.80
2019,05,28,16,39,19.80
2019,05,28,16,40,19.80
2019,05,28,16,41,19.80
2019,05,28,16,42,19.80
2019,05,28,16,43,19.80
2019,05,28,16,44,19.80
2019,05,28,16,45,19.80
2019,05,28,16,46,19.80
2019,05,28,16,47,19.90
2019,05,28,16,48,19.90
2019,05,28,16,49,19.90
2019,05,28,16,50,19.90
2019,05,28,16,51,19.90
2019,05,28,16,52,19.90
2019,05,28,16,53,19.90
2019,05,28,16,54,19.90
2019,05,28,16,55,19.90
2019,05,28,16,56,19.90
2019,05,28,16,57,19.90
2019,05,28,16,58,19.90
2019,05,28,16,59,19.90
2019,05,28,17,00,19.90
2019,05,28,17,01,19.90
2019,05,28,17,02,19.90
2019,05,28,17,03,19.90
2019,05,28,17,04,19.90
2019,05,28,17,05,19.90
2019,05,28,17,06,19.90
2019,05,28,17,07,19.90
2019,05,28,17,08,19.90
2019,05,28,17,09,19.90
2019,05,28,17,10,19.90
2019,05,28,17,11,19.90
2019,05,28,17,12,19.80
2019,05,28,17,13,19.80
2019,05,28,17,14,19.80
2019,05,28,17,15,19.80
2019,05,28,17,16,19.80
2019,05,28,17,17,19.80
2019,05,28,17,18,19.80
2019,05,28,17,19,19.80